{"data":{"norad_id":59200,"intl_designator":"2024-045Y","name":"STARLINK-31503","alt_names":[],"object_type":"PAYLOAD","status":"ACTIVE","operator":null,"country":"US","launch_date":"2024-03-10","launch_site_code":"AFETR","launch_vehicle":null,"mission":null,"orbit_class":"UNKNOWN","rcs_meters":null,"size_class":null,"mass_kg":null,"dimensions":null,"purposes":["comms"],"wikipedia_slug":null,"has_3d_model":false,"image_url":null,"decayed_at":null,"tle_current":{"epoch":"2026-09-19T21:28:03.834048Z","epoch_age_seconds":211169,"freshness":"STALE","line1":"1 59200U 24045Y   26262.89448882  .00001505  00000+0  64209-4 0  9995","line2":"2 59200  43.0015  75.6708 0002161 255.8761 104.1850 15.27585215142869","mean_motion":15.27585215,"eccentricity":0.0002161,"inclination_deg":43.0015,"raan_deg":75.6708,"arg_perigee_deg":255.8761,"mean_anomaly_deg":104.185,"bstar":6.4209e-5,"rev_number":14286,"period_min":94.266426897828,"perigee_km":481.55078155716,"apogee_km":484.51617943883,"semimajor_km":6861.170480498,"source":"CELESTRAK","updated_at":"2026-09-21T09:00:34.067093Z"}}}